Location: Góry Miechowskie
(50.3599°N, 20.1803°E)
Time: 07:36:21
(UTC+00:00)

Courier 1B - Pass Details

Date: 21 September 2024
Orbit: 962 x 1208 km, 28.3° (Epoch: 12 October)

Event Time Altitude Azimuth Distance (km) Brightness Sun altitude
Rises 11:36:57 0° 221° (SW) 3,753 11.4 38.2°
Reaches altitude 10° 11:42:28 10° 185° (S) 2,873 11.1 37.8°
Maximum altitude 11:43:50 11° 174° (S) 2,846 10.9 37.8°
Drops below altitude 10° 11:45:13 10° 163° (SSE) 2,910 10.8 37.7°
Sets 11:50:59 0° 127° (SE) 3,945 10.8 37.3°
